Low Moor, IA

1:29 AM CST on January 21, 2017 (GMT -0600)
Clinton

Weather History for KCWI - November, 2011

Change the Weather History Date:

Saturday, November 12, 2011

  Actual Average Record
Temperature  
Mean Temperature - -  
Max Temperature - 45 °F 66 °F (1964)
Min Temperature - 28 °F 10 °F (1996)
Moisture  
Dew Point -    
Average Humidity    
Maximum Humidity    
Minimum Humidity    
Precipitation  
Precipitation 0.00 in - - ()
Sea Level Pressure  
Sea Level Pressure 29.69 in    
Wind  
Wind Speed 9 mph (South)    
Max Wind Speed 21 mph    
Max Gust Speed 24 mph    
Visibility 10 miles    
Events      
Averages and records for this station are not official NWS values.
T = Trace of Precipitation, MM = Missing Value Source: NWS Daily Summary

Daily Weather History Graph

Daily Weather History Graph

Search for Another Location

Airport or City:

Trip Planner

Search our weather history database for the weather conditions in past years. The results will help you decide how hot, cold, wet, or windy it might be!

Date:

Astronomy

Nov. 12, 2011 Rise Set
Actual Time 6:46 AM CST 4:43 PM CST
Civil Twilight 6:17 AM CST 5:13 PM CST
Nautical Twilight 5:43 AM CST 5:46 PM CST
Astronomical Twilight 5:10 AM CST 6:19 PM CST
Moon 5:57 PM CST (11/12) 8:30 AM CST (11/12)
Length of Visible Light 10h 56m
Length of Day
9h 56m
Full, 97% of the Moon is Illuminated
Nov 12
Full
Nov 18
Last Quarter
Nov 25
New
Dec 2
First Quarter
Dec 10
Full

Hourly Weather History & Observations

Time (CST) Temp. Dew Point Humidity Pressure Visibility Wind Dir Wind Speed Gust Speed Precip Events Conditions
12:15 AM - - N/A% 29.75 in 10.0 mi SW 3.5 mph - N/A   Clear
12:35 AM - - N/A% 29.75 in 10.0 mi Calm Calm - N/A   Clear
12:55 AM - - N/A% 29.75 in 10.0 mi SSW 3.5 mph - N/A   Clear
1:15 AM - - N/A% 29.74 in 10.0 mi South 4.6 mph - N/A   Clear
1:35 AM - - N/A% 29.75 in 10.0 mi South 5.8 mph - N/A   Clear
1:55 AM - - N/A% 29.75 in 10.0 mi South 6.9 mph - N/A   Clear
2:15 AM - - N/A% 29.75 in 10.0 mi South 5.8 mph - N/A   Clear
2:35 AM - - N/A% 29.75 in 10.0 mi South 6.9 mph - N/A   Clear
2:55 AM - - N/A% 29.76 in 10.0 mi SSW 6.9 mph - N/A   Clear
3:15 AM - - N/A% 29.75 in 10.0 mi SSW 8.1 mph - N/A   Clear
4:15 AM - - N/A% 29.75 in 10.0 mi South 6.9 mph - N/A   Clear
4:35 AM - - N/A% 29.75 in 10.0 mi SSW 6.9 mph - N/A   Clear
4:55 AM - - N/A% 29.75 in 10.0 mi SSW 5.8 mph - N/A   Clear
5:15 AM - - N/A% 29.76 in 10.0 mi South 4.6 mph - N/A   Clear
5:35 AM - - N/A% 29.75 in 10.0 mi South 5.8 mph - N/A   Clear
5:55 AM - - N/A% 29.75 in 10.0 mi South 4.6 mph - N/A   Clear
6:15 AM - - N/A% 29.75 in 10.0 mi South 10.4 mph - N/A   Clear
6:35 AM - - N/A% 29.77 in 10.0 mi South 8.1 mph - N/A   Clear
7:15 AM - - N/A% 29.77 in 10.0 mi SSE 6.9 mph - N/A   Clear
7:35 AM - - N/A% 29.77 in 10.0 mi South 5.8 mph - N/A   Clear
7:55 AM - - N/A% 29.77 in 10.0 mi SSE 6.9 mph - N/A   Clear
8:15 AM - - N/A% 29.77 in 10.0 mi South 6.9 mph - N/A   Clear
8:35 AM - - N/A% 29.78 in 10.0 mi SSW 5.8 mph - N/A   Clear
9:15 AM - - N/A% 29.77 in 10.0 mi SSW 9.2 mph - N/A   Clear
9:35 AM - - N/A% 29.77 in 10.0 mi SSW 12.7 mph - N/A   Clear
10:15 AM - - N/A% 29.77 in 10.0 mi South 13.8 mph - N/A   Clear
10:35 AM - - N/A% 29.77 in 10.0 mi SSW 12.7 mph - N/A   Clear
10:55 AM - - N/A% 29.76 in 10.0 mi South 15.0 mph - N/A   Clear
11:15 AM - - N/A% 29.75 in 10.0 mi SSW 17.3 mph 20.7 mph N/A   Clear
11:35 AM - - N/A% 29.73 in 10.0 mi South 13.8 mph - N/A   Clear
12:15 PM - - N/A% 29.71 in 10.0 mi SSW 16.1 mph 21.9 mph N/A   Clear
12:35 PM - - N/A% 29.70 in 10.0 mi SSW 17.3 mph - N/A   Clear
12:55 PM - - N/A% 29.69 in 10.0 mi South 15.0 mph - N/A   Clear
1:15 PM - - N/A% 29.68 in 10.0 mi South 15.0 mph 19.6 mph N/A   Clear
1:35 PM - - N/A% 29.66 in 10.0 mi South 15.0 mph - N/A   Clear
1:55 PM - - N/A% 29.65 in 10.0 mi South 13.8 mph - N/A   Clear
2:15 PM - - N/A% 29.64 in 10.0 mi South 13.8 mph 19.6 mph N/A   Clear
2:35 PM - - N/A% 29.63 in 10.0 mi South 19.6 mph 23.0 mph N/A   Clear
2:55 PM - - N/A% 29.63 in 10.0 mi South 16.1 mph - N/A   Clear
3:15 PM - - N/A% 29.63 in 10.0 mi South 12.7 mph - N/A   Clear
3:35 PM - - N/A% 29.63 in 10.0 mi South 13.8 mph - N/A   Clear
3:55 PM - - N/A% 29.61 in 10.0 mi SSE 10.4 mph - N/A   Clear
4:15 PM - - N/A% 29.60 in 10.0 mi SSE 9.2 mph - N/A   Clear
4:35 PM - - N/A% 29.60 in 10.0 mi SSE 10.4 mph - N/A   Clear
4:55 PM - - N/A% 29.58 in 10.0 mi SSE 11.5 mph - N/A   Clear
5:15 PM - - N/A% 29.58 in 10.0 mi SSE 11.5 mph - N/A   Clear
5:35 PM - - N/A% 29.57 in 10.0 mi South 12.7 mph - N/A   Clear
5:55 PM - - N/A% 29.58 in 10.0 mi South 16.1 mph - N/A   Clear
6:15 PM - - N/A% 29.57 in 10.0 mi South 15.0 mph - N/A   Clear
6:35 PM - - N/A% 29.57 in 10.0 mi South 18.4 mph 23.0 mph N/A   Clear
6:55 PM - - N/A% 29.57 in 10.0 mi South 20.7 mph - N/A   Clear
7:35 PM - - N/A% 29.57 in 10.0 mi South 17.3 mph 21.9 mph N/A   Clear
7:55 PM - - N/A% 29.57 in 10.0 mi South 15.0 mph - N/A   Clear
8:15 PM - - N/A% 29.56 in 10.0 mi South 15.0 mph - N/A   Clear
8:35 PM - - N/A% 29.56 in 10.0 mi South 15.0 mph - N/A   Clear
8:55 PM - - N/A% 29.56 in 10.0 mi South 17.3 mph 24.2 mph N/A   Clear
9:15 PM - - N/A% 29.55 in 10.0 mi South 17.3 mph 21.9 mph N/A   Clear
9:35 PM - - N/A% 29.54 in 10.0 mi South 17.3 mph - N/A   Clear
9:55 PM - - N/A% 29.53 in 10.0 mi South 17.3 mph - N/A   Clear
10:15 PM - - N/A% 29.52 in 10.0 mi South 16.1 mph - N/A   Clear
10:35 PM - - N/A% 29.50 in 10.0 mi South 17.3 mph - N/A   Clear
10:55 PM - - N/A% 29.50 in 10.0 mi South 17.3 mph 24.2 mph N/A   Clear
11:15 PM - - N/A% 29.49 in 10.0 mi South 18.4 mph 27.6 mph N/A   Clear
11:35 PM - - N/A% 29.49 in 10.0 mi South 21.9 mph 27.6 mph N/A   Clear
11:55 PM - - N/A% 29.49 in 10.0 mi SSW 21.9 mph 27.6 mph N/A   Clear